www.pogodaiklimat.ru

Погода и климат >> Архив погоды >> Индонезия >> Merauke


ПОГОДА в Merauke

  • Прогноз погоды в Merauke
  • Монитор погоды в Merauke
  • Климат города

АРХИВ ПОГОДЫ в Merauke

Время (UTC), дата Ветер
(напр.,м/с)
 
Видим.   Явления Облачность Т
(С)
Тd
(С)
f
(%)
Тe
(С)
Тes
(С)
Комфортность P
(гПа)
Po
(гПа)
Тmin
(С)
Tmax
(С)
R
(мм)
R24
(мм)
S
(см)
00 13.07 ЮВ 3 8000 м 8/6 480 м
[Cu Sc Ac lent Ci sp]
+26.6 +24.0 86 +37 +39 очень
душно
1012.2 1011.8 +22.3
03 13.07 Ю 4 8000 м в посл. час дождь 8/6 480 м
[Cu Sc Ac lent Ci sp]
+26.3 +22.9 82 +35 +38 очень
душно
1010.5 1010.2 0.0
06 13.07 Ю 3 6000 м 9/6 480 м
[Cu Sc Ac lent Ci sp]
+26.4 +22.8 81 +35 +37 очень
душно
1008.2 1007.8 1
09 13.07 Ю 3 8000 м 8/6 500 м
[Cu Sc Ac lent Ci sp]
+25.9 +23.3 86 +35 +35 очень
душно
1009.1 1008.8
12 13.07 ЮВ 4 8000 м 8/6 480 м
[Cu Sc Ac lent Ci sp]
+25.1 +22.4 85 +33 +33 очень
душно
1011.0 1010.6 +27.4
15 13.07 ЮВ 2 8000 м 6/5 540 м
[Sc Ac trans Ci fib]
+24.6 +22.6 89 +32 +32 очень
душно
1011.2 1010.8
18 13.07 ЮВ 2 7000 м {дождь} 6/5 480 м
[Cu Sc Ac lent Ci sp]
+23.9 +22.3 91 +31 +31 очень
душно
1010.2 1009.8 0.0
21 13.07 ЮВ 1 10 км 6/5 500 м
[Cu Sc Ac lent Ci sp]
+23.6 +22.3 92 +31 +31 очень
душно
1010.1 1009.8
00 14.07 ЮВ 2 8000 м 9/8 480 м
[Cu Sc Ac lent Ci sp]
+26.2 +22.8 82 +35 +36 очень
душно
1011.2 1010.8 +23.6 1
03 14.07 ЮВ 3 8000 м 9/8 480 м
[Cu Sc Ac lent Ci sp]
+27.0 +23.0 79 +36 +38 очень
душно
1009.9 1009.5
06 14.07 ЮВ 3 8000 м 9/8 480 м
[Cu Sc Ac lent Ci sp]
+26.1 +23.8 87 +36 +37 очень
душно
1007.7 1007.3 2
09 14.07 ЮВ 3 8000 м 8/6 480 м
[Cu Sc Ac lent Ci sp]
+26.3 +22.3 79 +34 +34 очень
душно
1008.2 1007.8
12 14.07 ЮВ 3 8000 м 6/5 480 м
[Cu Sc Ac lent Ci sp]
+24.9 +22.0 84 +32 +32 очень
душно
1010.5 1010.1 +27.4
15 14.07 ЮВ 3 8000 м 8/6 500 м
[Cu Sc Ac lent Ci sp]
+24.6 +22.2 87 +32 +32 очень
душно
1010.6 1010.2
18 14.07 штиль 0 8000 м 8/6 500 м
[Cu Sc Ac lent Ci sp]
+24.1 +22.3 90 +31 +31 очень
душно
1009.2 1008.8
21 14.07 ЮВ 2 8000 м 8/6 500 м
[Cu Sc Ac trans Ci sp]
+23.8 +21.9 89 +31 +31 очень
душно
1009.8 1009.5
00 15.07 В 3 8000 м 9/8 480 м
[Cu Sc Ac trans Ci sp]
+26.9 +22.1 75 +35 +36 очень
душно
1011.4 1011.0 +23.6 2
03 15.07 ЮВ 5 10 км 8/6 500 м
[Cu Sc Ac lent Ci sp]
+27.5 +23.7 80 +38 +41 очень
душно
1010.2 1009.8
06 15.07 Ю 4 8000 м 9/8 480 м
[Cu Sc Ac lent Ci sp]
+26.6 +23.3 82 +36 +36 очень
душно
1007.9 1007.5
09 15.07 ЮВ 4 10 км 8/6 480 м
[Cu Sc Ac lent Ci sp]
+25.8 +23.1 85 +34 +34 очень
душно
1008.8 1008.4
12 15.07 ЮВ 3 10 км 8/6 540 м
[Cu Sc Ac lent Ci sp]
+25.3 +22.9 87 +34 +34 очень
душно
1011.1 1010.8 +28.0
15 15.07 ЮВ 1 8000 м 8/6 500 м
[Cu Sc Ac lent Ci sp]
+25.0 +22.7 87 +33 +33 очень
душно
1010.8 1010.4
18 15.07 штиль 0 5000 м в посл. час дождь 8/6 540 м
[Cu Sc Ac lent Ci sp]
+24.0 +23.2 95 +32 +32 очень
душно
1010.3 1010.0 0.2
21 15.07 штиль 0 8000 м 6/5 500 м
[Cu Sc Ac lent Ci sp]
+24.1 +23.1 94 +32 +32 очень
душно
1010.9 1010.6
00 16.07 ЮВ 4 8000 м 10/8 480 м
[Cu Sc Ac lent Ci sp]
+26.0 +23.4 86 +35 +36 очень
душно
1012.0 1011.6 +24.0 0.2
03 16.07 Ю 4 6000 м слабый дождь 10/8 480 м
[Cu Sc Ac lent Ci sp]
+26.2 +24.4 90 +37 +38 очень
душно
1010.8 1010.5 0.6
06 16.07 ЮВ 4 8000 м 9/8 480 м
[Cu Sc Ac lent Ci sp]
+26.2 +23.7 86 +36 +36 очень
душно
1008.4 1008.0 2
12 16.07 ЮВ 3 8000 м 8/6 500 м
[Cu Sc Ac lent Ci sp]
+25.0 +23.0 89 +33 +33 очень
душно
1011.1 1010.7 +27.4
15 16.07 штиль 0 8000 м 8/6 480 м
[Cu Sc Ac lent Ci sp]
+24.5 +23.1 92 +33 +33 очень
душно
1010.7 1010.3
18 16.07 штиль 0 7000 м 6/4 540 м
[Sc Ac lent Ci sp]
+24.4 +23.2 93 +33 +33 очень
душно
1009.7 1009.3
21 16.07 штиль 0 7000 м 8/6 480 м
[Cu Sc Ac lent Ci sp]
+24.1 +23.2 95 +32 +32 очень
душно
1010.2 1009.8
00 17.07 ЮВ 6 8000 м 9/8 480 м
[Cu Sc Ac lent Ci sp]
+26.8 +23.4 82 +36 +37 очень
душно
1011.6 1011.2 +24.0 3
03 17.07 Ю 2 7000 м в посл. час дождь 9/8 480 м
[Cu Sc Ac lent Ci sp]
+27.7 +24.4 82 +39 +42 очень
душно
1009.9 1009.5 0.2
06 17.07 Ю 5 8000 м 9/8 480 м
[Cu Sc Ac lent Ci sp]
+27.0 +25.0 89 +39 +39 очень
душно
1008.2 1007.8
09 17.07 ЮВ 5 8000 м 9/8 480 м
[Cu Sc Ac lent Ci sp]
+26.3 +23.2 83 +35 +35 очень
душно
1008.7 1008.3
12 17.07 ЮВ 4 8000 м 8/6 500 м
[Cu Sc Ac lent Ci sp]
+25.9 +22.9 84 +35 +35 очень
душно
1010.8 1010.4 +27.8
15 17.07 В 2 8000 м 8/6 500 м
[Cu Sc Ac lent Ci sp]
+25.4 +22.6 85 +33 +33 очень
душно
1010.9 1010.6
18 17.07 штиль 0 8000 м 8/6 500 м
[Cu Sc Ac lent Ci sp]
+25.1 +22.7 87 +33 +33 очень
душно
1010.0 1009.7
21 17.07 ЮВ 2 8000 м 9/6 480 м
[Cu Sc Ac lent Ci sp]
+24.8 +22.7 88 +33 +33 очень
душно
1010.8 1010.4
00 18.07 ЮВ 3 8000 м {дождь} 9/8 300 м
[Cu Sc Ac lent Ci sp]
+26.1 +22.7 82 +35 +36 очень
душно
1012.3 1011.9 +24.8 0.0
03 18.07 ЮВ 2 9000 м 9/8 480 м
[Cu Sc Ac lent Ci sp]
+28.7 +22.9 71 +38 +41 очень
душно
1010.3 1009.9
06 18.07 штиль 0 50 км ?/? +28.7 +22.8 70 +38 +38 очень
душно
1008.7 1008.3
09 18.07 ЮВ 3 10 км 8/6 500 м
[Cu Sc Ac lent Ci sp]
+26.4 +22.2 78 +34 +34 очень
душно
1009.8 1009.4
12 18.07 ЮВ 2 8000 м 5/4 540 м
[Cu hum Ac trans Ci fib]
+24.7 +21.9 84 +32 +32 очень
душно
1011.5 1011.1 +29.4
15 18.07 ЮВ 1 8000 м 9/8 500 м
[Cu Sc Ac lent Ci sp]
+24.9 +21.7 82 +32 +32 очень
душно
1011.4 1011.1
18 18.07 ЮВ 2 7000 м 9/8 500 м
[Cu Sc Ac lent Ci sp]
+24.9 +21.5 81 +32 +32 очень
душно
1010.5 1010.1
21 18.07 ЮВ 2 8000 м 10/9 500 м
[Cu Sc Ac lent Ci sp]
+24.8 +21.8 83 +32 +32 очень
душно
1011.4 1011.0
00 19.07 ЮВ 2 9000 м 6/5 500 м
[Cu Sc Ac lent Ci sp]
+26.9 +22.7 78 +36 +40 очень
душно
1013.0 1012.6 +24.6
03 19.07 ЮВ 5 9000 м 8/6 480 м
[Cu Sc Ac lent Ci sp]
+28.9 +22.7 69 +38 +41 очень
душно
1011.3 1010.9
06 19.07 ЮВ 4 10 км 9/8 480 м
[Cu Sc Ac lent Ci sp]
+28.3 +22.8 72 +38 +38 очень
душно
1009.3 1008.9
09 19.07 ЮВ 3 10 км 9/8 480 м
[Cu Sc Ac lent Ci sp]
+26.2 +22.3 79 +34 +34 очень
душно
1010.7 1010.3
12 19.07 В 2 8000 м 8/6 480 м
[Cu Sc Ac lent Ci sp]
+25.7 +21.7 79 +33 +33 очень
душно
1013.0 1012.6 +29.2
15 19.07 В 2 8000 м 6/4 600 м
[Sc Ac trans Ci sp]
+24.9 +21.1 79 +31 +31 очень
душно
1013.0 1012.6
18 19.07 штиль 0 7000 м 6/4 540 м
[Sc Ac trans Ci sp]
+24.2 +21.0 82 +30 +30 очень
душно
1012.7 1012.4
21 19.07 штиль 0 7000 м 9/8 540 м
[Cu Sc Ac lent Ci sp]
+23.7 +20.9 84 +30 +30 очень
душно
1013.5 1013.1

 

Местоположение метеостанции Merauke (Индонезия): широта -8.47 долгота 140.38 высота над уровнем моря 3 м.

В архиве по умолчанию представлена погода в Merauke за последнюю неделю. Архивные данные за месяц целиком и за предыдущие месяцы, начиная с января 2011 года, Вы можете получить, выбрав интересующий диапазон дат из раскрывающегося списка и нажав кнопку "Ввод!".


*Определитесь, кто Вы:
робот инопланетянин человек

Внимание! Время в таблицах - всемирное. Для получения местного времени необходимо прибавить поправку, которая в Merauke равна 9 ч.

Смотрите также архив погоды в соседних городах и на ближайших метеорологических станциях:

Погода в Tanah Merah (Индонезия) (264 км)
Погода в Horn Island (Квинсленд, Австралия) (314 км)
Погода в Coconut Island (Квинсленд, Австралия) (344 км)
Погода в Cape Wessel (Северная территория, Австралия) (488 км)
Погода в Weipa Aero (Квинсленд, Австралия) (497 км)
Погода в Scherger Raaf (Квинсленд, Австралия) (498 км)
Погода в Kokonao (Индонезия) (504 км)
Погода в Wamena (Индонезия) (514 км)
Погода в Lockhart River Airport (Квинсленд, Австралия) (576 км)
Погода в Gove Airport (Северная территория, Австралия) (576 км)

Пояснения к столбцам:

Ветер - указаны скорость ветра в м/с - средняя за 10 мин, порывы в срок и между сроками (в фигурных скобках) и направление, откуда дует ветер: С - северный, СВ - северо-восточный, В - восточный, ЮВ - юго-восточный, Ю - южный, ЮЗ - юго-западный, З - западный, СЗ - северо-западный.
Видимость - горизонтальная дальность видимости в метрах или километрах. При видимости от 1 до 10 км при отсутствии осадков обычно наблюдается дымка, при ухудшении видимости до 1 км и менее - туман. В сухую погоду видимость может ухудшаться дымом, пылью или мглою.
Явления - указаны атмосферные явления, наблюдавшиеся в срок или в последний час перед сроком; фигурными скобками обозначены явления, наблюдавшиеся между сроками (за 1-3 часа до срока); квадратными скобками обозначены град или гололедные отложения с указанием их диаметра в мм.
Облачность - указаны через наклонную черту общая и нижняя облачность в баллах и высота нижней границы облаков в метрах; квадратными скобками обозначены формы облаков: Ci - перистые, Cs - перисто-слоистые, Cc - перисто-кучевые, Ac - высококучевые, As - высокослоистые, Sc - слоисто-кучевые, Ns - слоисто-дождевые, Cu - кучевые, Cb - кучево-дождевые. Подробнее классификацию облаков см. в Атласе облаков (PDF).
T - Температура воздуха - температура, измеренная на высоте 2 м над землей.
Td - Температура точки росы - температура, при понижении до которой содержащийся в воздухе водяной пар достигнет насыщения.
f - Относительная влажность воздуха - влажноcть воздуха, измеренная на высоте 2 м над землей.
Te - Эффективная температура - температура, которую ощущает одетый по сезону человек в тени. Характеристика душности погоды. При расчете учитывается влияние влажности воздуха и скорости ветра на теплоощущения человека.
Tes - Эффективная температура на солнце - температура, которую ощущает человек, с поправкой на солнечный нагрев. Характеристика знойности погоды. Зависит от высоты солнца над горизонтом, облачности и скорости ветра. Ночью, в пасмурную погоду, а также при ветре 12 м/с и более поправка равна нулю.
P - Атмосферное давление - приведенное к уровню моря атмосферное давление.
Po - Атмосферное давление - измеренное на уровне метеостанции атмосферное давление.
Tmin - Минимальная температура - минимум температуры воздуха на высоте 2 м над землей.
Tmax - Максимальная температура - максимум температуры воздуха на высоте 2 м над землей.
R - Количество осадков - Количество выпавших осадков за период времени, мм. При наведении курсора мыши на число - период времени, за который выпало указанное количество осадков.
R24 - Количество осадков - Количество выпавших осадков за 24 часа, мм.
S - Снежный покров - Высота снежного покрова, см. При наведении курсора мыши на число - состояние снежного покрова и степень покрытия местности в баллах.